Flag for Brazil Weather past 2 weeks in Boa Vista, Roraima, Brazil

Now
81 °F

Clear.


Feels Like: 85 °F
Forecast: 77 / 89 °F
Wind: 5 mph from East

Location: Boa Vista Aeropor-To

Current Time: Jul 24, 2014 at 12:54:45 AM

Latest Report: Jul 24, 2014 at 12:00 AM


Visibility: 10 mi

Pressure: 29.95 "Hg

Humidity: 74%

Dew point: 72 °F

Location of Boa VistaLocation

Historic Weather in Boa Vista — Graph

°F

Boa Vista temperature yesterday

Maximum temperature yesterday: 91 °F (at 1:00 PM)
Minimum temperature yesterday: 77 °F (at 5:00 AM)
Average temperature yesterday: 85 °F

Past Weeks' High & Low Weather Summary

 TemperatureHumidityPressure
High93 °F (Jul 20, 1:00 PM)100% (Jul 11, 6:00 AM)30.15 "Hg (Jul 11, 6:00 AM)
Low37 °F (Jul 14, 2:00 AM)24% (Jul 23, 4:00 PM)29.83 "Hg (Jul 11, 4:00 PM)
Average81 °F74%29.96 "Hg
* Reported Midnight between Jul 8 and Jul 9 — Midnight between Jul 23 and Jul 24, Boa Vista, Weather by CustomWeather, © 2014

Note: Actual official high and low records may vary slightly from our data, if they occured in-between our weather recording intervals... More about our weather records

Advertising

Boa Vista weather history for previous 24 hours

 ConditionsComfort  
Time TempWeatherWind HumidityBarometerVisibility
12:00 AM
Jul 24
81 °FClear.5 mph74%29.95 "Hg10 mi
11:00 PM
Jul 23
81 °FClear.5 mph70%29.95 "Hg10 mi
10:00 PM82 °FClear.6 mph66%29.92 "Hg10 mi
9:00 PM84 °FPassing clouds.6 mph62%29.92 "HgN/A
8:00 PM86 °FPassing clouds.2 mph46%29.89 "HgN/A
7:00 PM88 °FPassing clouds.6 mph52%30.15 "HgN/A
6:00 PM90 °FPassing clouds.10 mph46%29.86 "HgN/A
5:00 PM91 °FScattered clouds.8 mph44%30.15 "HgN/A
4:00 PM91 °FScattered clouds.9 mph24%29.86 "HgN/A
3:00 PM91 °FBroken clouds.14 mph46%29.86 "HgN/A
2:00 PM91 °FBroken clouds.9 mph46%29.89 "HgN/A
1:00 PM91 °FPartly sunny.12 mph46%29.92 "HgN/A
12:00 PM90 °FPartly sunny.16 mph52%29.95 "HgN/A
11:00 AM88 °FPartly sunny.12 mph59%29.98 "HgN/A
10:00 AM86 °FScattered clouds.14 mph62%29.98 "HgN/A
9:00 AM84 °FPassing clouds.16 mph66%29.98 "HgN/A
8:00 AM82 °FSunny.8 mph74%29.98 "Hg10 mi
7:00 AM79 °FSunny.6 mph79%29.95 "Hg10 mi
6:00 AM77 °FClear.7 mph83%29.92 "Hg10 mi
5:00 AM77 °FClear.6 mph83%29.92 "Hg10 mi
2:00 AM79 °FClear.5 mph84%29.92 "Hg10 mi
1:00 AM79 °FClear.6 mph84%29.95 "Hg10 mi
12:00 AM79 °FClear.7 mph84%29.95 "Hg10 mi
Weather by CustomWeather, © 2014

See weather overviewHow to use our weather pages